WD7CGF Weather Reports


time (UTC)temp
C
wind
direction
speed
KPH
gust
KPH
rain 1hr
cm
rain 24hr
cm
rain mn
cm
humidity
%
barometer
mb
20260504214837 28 65 1.6 11.3 0.00 0.00 0.00 28 1006.5
20260504213829 28 231 1.6 4.8 0.00 0.00 0.00 29 1006.7
20260504212844 28 51 1.6 8.0 0.00 0.00 0.00 25 1006.8
20260504211833 29 232 1.6 6.4 0.00 0.00 0.00 30 1006.8
20260504210825 28 81 3.2 9.7 0.00 0.00 0.00 29 1007.0
20260504205836 28 173 1.6 4.8 0.00 0.00 0.00 28 1007.3
20260504204828 28 88 3.2 4.8 0.00 0.00 0.00 29 1007.3
20260504203838 28 97 1.6 4.8 0.00 0.00 0.00 29 1007.5
20260504202830 28 38 4.8 8.0 0.00 0.00 0.00 29 1007.8
20260504201845 28 117 3.2 6.4 0.00 0.00 0.00 30 1007.8
20260504200838 28 164 4.8 9.7 0.00 0.00 0.00 33 1007.7
20260504195827 27 87 3.2 8.0 0.00 0.00 0.00 34 1008.0
20260504194839 27 81 1.6 6.4 0.00 0.00 0.00 33 1008.0
20260504193830 26 48 3.2 6.4 0.00 0.00 0.00 36 1008.2
20260504192840 26 265 1.6 6.4 0.00 0.00 0.00 41 1008.4
20260504191833 26 137 1.6 3.2 0.00 0.00 0.00 41 1008.4
20260504190822 25 112 1.6 6.4 0.00 0.00 0.00 42 1008.5
20260504185836 25 241 1.6 4.8 0.00 0.00 0.00 44 1008.9
20260504184833 25 126 3.2 6.4 0.00 0.00 0.00 43 1008.9
20260504183845 24 117 1.6 6.4 0.00 0.00 0.00 45 1008.1
20260504182833 23 209 1.6 6.4 0.00 0.00 0.00 45 1008.3
20260504181844 23 230 1.6 4.8 0.00 0.00 0.00 44 1008.3
20260504180835 22 24 1.6 8.0 0.00 0.00 0.00 43 1009.0
20260504175843 22 14 0.0 4.8 0.00 0.00 0.00 47 1008.3
20260504174834 21 258 1.6 4.8 0.00 0.00 0.00 48 1008.3
20260504173825 21 45 3.2 4.8 0.00 0.00 0.00 47 1008.5
20260504172837 21 255 0.0 4.8 0.00 0.00 0.00 48 1008.7
20260504171828 20 126 0.0 3.2 0.00 0.00 0.00 50 1008.7
20260504170840 20 59 1.6 3.2 0.00 0.00 0.00 48 1009.5
20260504150838 15 123 0.0 0.0 0.00 0.00 0.00 63 1010.0
20260504140829 9 5 0.0 0.0 0.00 0.00 0.00 82 1009.6
20260504081835 10 53 0.0 0.0 0.00 0.00 0.00 77 1009.2
20260504080848 11 54 0.0 1.6 0.00 0.00 0.00 76 1009.3
20260504045839 16 334 0.0 1.6 0.00 0.00 0.00 58 1009.0
20260504044829 17 360 0.0 1.6 0.00 0.00 0.00 60 1009.0
20260504043856 17 303 0.0 1.6 0.00 0.00 0.00 60 1008.8
20260504042838 18 311 0.0 3.2 0.00 0.00 0.00 58 1008.5
20260504041844 18 294 0.0 3.2 0.00 0.00 0.00 55 1008.5
20260504040832 18 5 0.0 1.6 0.00 0.00 0.00 54 1008.4
20260504035843 19 5 0.0 4.8 0.00 0.00 0.00 53 1008.3
20260504034836 20 5 0.0 0.0 0.00 0.00 0.00 52 1008.3
20260504033848 21 329 0.0 0.0 0.00 0.00 0.00 50 1008.2
20260504032835 21 355 0.0 0.0 0.00 0.00 0.00 48 1007.8
20260504031829 22 204 0.0 0.0 0.00 0.00 0.00 47 1007.8
20260504030841 22 194 0.0 0.0 0.00 0.00 0.00 46 1007.9
20260504025833 23 194 0.0 0.0 0.00 0.00 0.00 43 1007.7
20260504024845 23 143 0.0 0.0 0.00 0.00 0.00 37 1007.7
20260504023835 24 143 0.0 0.0 0.00 0.00 0.00 36 1007.4
20260504022847 25 111 0.0 0.0 0.00 0.00 0.00 34 1007.3
20260504021835 25 111 0.0 0.0 0.00 0.00 0.00 32 1007.3
20260504020828 26 81 0.0 0.0 0.00 0.00 0.00 32 1007.0
20260504015843 26 97 0.0 4.8 0.00 0.00 0.00 32 1007.0
20260504014830 26 94 0.0 4.8 0.00 0.00 0.00 32 1007.0
20260504013842 26 9 3.2 4.8 0.00 0.00 0.00 31 1006.9
20260504012834 27 152 1.6 4.8 0.00 0.00 0.00 31 1007.0
20260504011826 27 163 1.6 8.0 0.00 0.00 0.00 28 1007.0
20260504010841 27 272 1.6 8.0 0.00 0.00 0.00 28 1007.5
20260504005833 27 76 3.2 4.8 0.00 0.00 0.00 30 1007.7
20260504004847 27 183 1.6 4.8 0.00 0.00 0.00 29 1007.7
20260504003842 27 255 3.2 4.8 0.00 0.00 0.00 28 1007.9
20260504002831 27 86 1.6 8.0 0.00 0.00 0.00 28 1007.9
20260504001839 27 262 1.6 8.0 0.00 0.00 0.00 30 1007.9
20260504000848 27 271 6.4 9.7 0.00 0.00 0.00 26 1008.2
20260503235834 27 202 1.6 9.7 0.00 0.00 0.00 28 1008.3
20260503234845 28 196 4.8 9.7 0.00 0.00 0.00 27 1008.3
20260503233834 28 146 3.2 11.3 0.00 0.00 0.00 26 1008.3
20260503232847 28 86 3.2 6.4 0.00 0.00 0.00 27 1008.7
20260503231836 28 108 3.2 6.4 0.00 0.00 0.00 26 1008.7
20260503230832 28 271 1.6 6.4 0.00 0.00 0.00 29 1008.8
20260503225843 28 179 3.2 8.0 0.00 0.00 0.00 26 1009.0
20260503224833 28 196 4.8 8.0 0.00 0.00 0.00 28 1009.0
20260503223847 28 34 0.0 4.8 0.00 0.00 0.00 27 1009.3
20260503222837 28 317 0.0 4.8 0.00 0.00 0.00 29 1009.5
20260503221847 28 238 1.6 4.8 0.00 0.00 0.00 28 1009.5
20260503220837 28 286 3.2 6.4 0.00 0.00 0.00 26 1010.7
20260503215845 28 78 3.2 6.4 0.00 0.00 0.00 30 1010.0